Weather in Voznesenskoye

Russia / Nizhny Novgorod Oblast'     54°53′28″N   42°45′40″E
temp.,
°C
wind,
m/s
gust,
m/s
humid.,
%
clouds,
%
prec.,
mm/h
press.,
hPa
HPBL,
m
13 june, sun
sun1300:00+14sse2395100 0.0 100866
03:00+13sse239769 0.0 100855
06:00+15sse259568 0.0 1008180
09:00+20s357744 0.2 1008654
12:00+21s4575100 1.1 10081229
15:00+22ssw358488 5.5 1007988
18:00+19sw3791100 4.1 1008251
21:00+16sw24966 4.3 101078
14 june, mon
mon1400:00+15ssw23977 0.0 101161
03:00+14ssw2297100 0.0 101236
06:00+16ssw2395100 0.0 1013114
09:00+22sw23684 0.1 1014642
12:00+25ssw22535 0.1 10141576
15:00+25ssw335528 0.1 10141036
18:00+23ssw237810 0.4 1014119
21:00+18wnw2289100 1.6 101511
15 june, tue
tue1500:00+16ne1194100 0.8 101511
03:00+16n229499 0.8 101514
06:00+18ene119165 0.0 101556
09:00+23ne126473 0.2 1014628
12:00+25e2351100 1.0 10131400
15:00+26e2351100 1.0 10111637
18:00+21e2687100 0.8 1011199
21:00+17sse229575 1.2 101034
16 june, wed
wed1600:00+17ene1194100 0.0 101016
03:00+16ene119682 0.0 100912
06:00+18ene119185 0.0 100984
09:00+23nne126798 0.0 1008624
12:00+27n21525 0.0 10081524
15:00+27nne3351100 0.9 10071680
18:00+20nnw51191100 5.1 1009515
21:00+17n512948 8.8 1012569
17 june, thu
thu1700:00+16n513910 0.0 1013630
03:00+14n513730 0.0 1015477
06:00+14n413750 0.0 1017476
09:00+19n69491 0.0 10181172
12:00+22nne57440 0.0 10191695
15:00+23nne57430 0.0 10201882
18:00+21nne47540 0.0 10211019
21:00+15nne37730 0.0 1022119